Location: Bli��� Lhota
(48.7570°N, 14.0120°E)
Time: 03:15:40
(UTC+00:00)

USA 238 - Pass Details

Date: 18 September 2020
Orbit: 1006 x 1206 km, 63.4° (Epoch: 15 October)

Event Time Altitude Azimuth Distance (km) Brightness Sun altitude
Rises 19:32:52 0° 317° (NW) 3,946 8.0 -23.2°
Reaches altitude 10° 19:35:32 10° 314° (NW) 3,013 7.1 -23.5°
Maximum altitude 19:42:38 63° 236° (SW) 1,288 4.1 -24.5°
Enters shadow 19:45:44 36° 171° (S) 1,771 4.5 -24.9°
